Regional Weather Roundup
Issued by NWS Green Bay, WI

Home | Current Version | Previous Version | Graphics & Text | Print | Product List | Glossary Off
Versions: 1 2 3 4 5 6 7 8 9 10 11 12 13 14 15 16 17 18 19 20 21 22 23 24 25 26 27 28 29 30 31 32 33 34 35 36 37 38 39 40 41 42 43 44 45 46 47 48 49 50

000
ASUS43 KGRB 251310
RWRGRB

NORTH-CENTRAL AND NORTHEAST WISCONSIN REGIONAL WEATHER ROUNDUP
NATIONAL WEATHER SERVICE GREEN BAY WI
700 AM CST THU DEC 25 2014

WIZ005-009-010>012-018-019-251400-
NORTH CENTRAL WISCONSIN

CITY           SKY/WX    TMP DP  RH WIND       PRES   REMARKS
IRONWOOD       CLOUDY    30  28  93 SW9G17    29.56R
MANITOWISH WTR CLOUDY    29  28  96 SW9       29.59R
ARBOR VITAE    CLOUDY    32  29  90 SW10      29.61R
EAGLE RIVER    CLOUDY    30  28  94 SW10      29.60R
LAND O LAKES   CLOUDY    31  29  92 SW7       29.60R
RHINELANDER    CLOUDY    29  26  89 W10       29.62R
PHILLIPS       CLOUDY    29  27  90 SW8       29.62R
ANTIGO         CLOUDY    30  27  91 W12       29.65R
TOMAHAWK       CLOUDY    29  27  90 SW6       29.65R
MERRILL        CLOUDY    31  28  91 SW9G16    29.66R
$$

WIZ013-073-251400-
NORTHEAST WISCONSIN

CITY           SKY/WX    TMP DP  RH WIND       PRES   REMARKS
IRON MOUNTAIN  CLOUDY    32  27  81 SW9       29.61R
MARINETTE      CLOUDY    32  28  86 W8        29.67R
OCONTO         CLOUDY    32  30  94 SW8       29.70R
$$

WIZ017-030-035>037-045-251400-
CENTRAL WISCONSIN

CITY           SKY/WX    TMP DP  RH WIND       PRES   REMARKS
MEDFORD        CLOUDY    29  27  90 SW9       29.66R
WAUSAU         CLOUDY    31  26  82 W12       29.66R
MOSINEE        CLOUDY    30  28  93 SW15      29.68R
MARSHFIELD     CLOUDY    31  27  85 SW10      29.67S
WISC RAPIDS    CLOUDY    32  26  78 SW7       29.71S
STEVENS POINT  CLOUDY    30  26  85 W9G17     29.70R
WAUPACA        CLOUDY    34  29  82 SW12      29.72R
SHAWANO        CLOUDY    35  30  83 SW8G18    29.69S
CLINTONVILLE   CLOUDY    32  30  93 W8        29.70R
$$

WIZ038-039-048-051-251400-
FOX VALLEY

CITY           SKY/WX    TMP DP  RH WIND       PRES   REMARKS
NWS GREEN BAY  CLOUDY    34  30  85 SW9       29.71S
APPLETON       CLOUDY    34  30  86 SW10      29.71R
OSHKOSH        CLOUDY    34  27  75 SW8       29.73R
FOND DU LAC    CLOUDY    34  28  79 SW8       29.75R
$$

WIZ022-050-052-251400-
EAST CENTRAL WISCONSIN

CITY           SKY/WX    TMP DP  RH WIND       PRES   REMARKS
STURGEON BAY   CLEAR     30  27  86 SW12      29.70R
MANITOWOC      CLOUDY    35  30  82 W8        29.74R
SHEBOYGAN      CLOUDY    34  28  79 SW10      29.75R
$$

LMZ563-521-522-541>543-251400-
LAKESHORE

STATION/POSITION TIME  TEMP    WIND        PRES    VSBY  WAVE
                       AIR SEA DIR/SP/G                  HT/PER
                 (UTC) (F)     (DEG/KT/KT) (MB)    (MI)  (FT/S)
SHEBOYGAN LKSHOR 1300   36 37  240/ 13/ 15 1008.4R
KEWAUNEE LKSHORE 1300   33     250/  6/ 11 1005.3R
ALGOMA MARINA    1300          290/ 11/ 14   N/A
NORTHPORT PIER   1300   33     250/  5/ 12 1004.4R
SISTER BAY LKSHO 1300          270/ 13/ 15   N/A
STURGEON BAY CG  1300   32     240/  4     1005.6      6   1
CHAMBERS ISLAND  1300   34     210/  8/ 13 1004.4R
MENOMINEE LKSHOR 1300   32     220/ 10/ 13 1005.4R
$$


USA.gov is the U.S. government's official web portal to all federal, state and local government web resources and services.